This is the latest recevied weather packets stored in our database for station/object KJ6LNH-1. If no packets are shown the sender has not sent any weather packets the latest 1 day(s).
| Time | Temp. | Humidity | Pressure | Rain* | Wind** | Luminosity | Snow |
|---|---|---|---|---|---|---|---|
| 1778043608 | 12.22° C | 84% | 1016.1 hPa | 0 mm | - | - | - |
| 1778042707 | 12.78° C | 83% | 1016.1 hPa | 0 mm | - | - | - |
| 1778042408 | 12.78° C | 82% | 1016 hPa | 0 mm | - | - | - |
| 1778041507 | 12.78° C | 81% | 1015.8 hPa | 0 mm | - | - | - |
| 1778040908 | 13.33° C | 81% | 1015.7 hPa | 0 mm | - | - | - |
| 1778040609 | 13.33° C | 81% | 1015.6 hPa | 0 mm | - | - | - |
| 1778039108 | 13.33° C | 79% | 1015.4 hPa | 0 mm | - | - | - |
| 1778038817 | 13.89° C | 79% | 1015.4 hPa | 0 mm | - | - | - |
| 1778038508 | 13.89° C | 78% | 1015.3 hPa | 0 mm | - | - | - |
| 1778038207 | 13.89° C | 78% | 1015.2 hPa | 0 mm | - | - | - |
| 1778037908 | 13.89° C | 78% | 1015.1 hPa | 0 mm | - | - | - |
| 1778036410 | 13.89° C | 76% | 1014.7 hPa | 0 mm | - | - | - |
| 1778035807 | 14.44° C | 76% | 1014.7 hPa | 0 mm | - | - | - |
| 1778035508 | 14.44° C | 76% | 1014.6 hPa | 0 mm | - | - | - |
| 1778034908 | 14.44° C | 76% | 1014.5 hPa | 0 mm | - | - | - |
| 1778034608 | 14.44° C | 75% | 1014.5 hPa | 0 mm | - | - | - |
| 1778034307 | 14.44° C | 75% | 1014.5 hPa | 0 mm | - | - | - |
| 1778032808 | 15° C | 74% | 1014.3 hPa | 0 mm | - | - | - |
| 1778031908 | 15.56° C | 74% | 1014.1 hPa | 0 mm | - | - | - |
| 1778031607 | 15.56° C | 75% | 1014 hPa | 0 mm | - | - | - |
| 1778031308 | 15.56° C | 74% | 1014 hPa | 0 mm | - | - | - |
| 1778030408 | 16.11° C | 74% | 1014 hPa | 0 mm | - | - | - |
| 1778029508 | 16.11° C | 73% | 1014 hPa | 0 mm | - | - | - |
| 1778029207 | 16.67° C | 73% | 1013.9 hPa | 0 mm | - | - | - |
| 1778027108 | 16.67° C | 71% | 1013.8 hPa | 0 mm | - | - | - |
* Rain latest hour (hover to see other rain measurements)
** Current wind speed in m/s (hover to see current wind gust speed)